Liberal Mid-America Regional Airport

Airport
ICAO code: 
KLBL
Summary
ICAO Region: 
NAM
Territory: 
Location: 
Liberal, Kansas,
Coordinates: 
Aerial View: 
37° 2' 39.001" N, 100° 57' 35.996" W
Airport CFIT: 
Altimeter Temperature Error Correction
Metar
Observation
KLBL 241656Z AUTO 01012KT 10SM CLR 10/M05 A2992 RMK AO2 SLP138 T01001050
Station
Liberal, Liberal Municipal Airport
Date/Time
2022-01-24 16:56:00
Wind direction
10°
Wind speed
12 kts
Lowest cloud amount
n/a
Temperature
10°C
Dew point
-5°C
Humidity
34%
Weather condition
n/a

Description

Liberal Mid-America Regional Airport, formerly known as Liberal Municipal Airport, is a public-use airport located 4 km west of the central business district of Liberal, a city in Seward County, Kansas.

Climatology

Liberal has a semi-arid steppe climate (Köppen climate classification BSk) characterized by hot, dry summers and cold, dry winters.

Runways

Designator Length Width Surface Rops
4/22 1744 46 CONC-F Yes/Yes
17/35 2166 46 ASP Yes/Yes
Airport map: 
Aerial View: 

SKYbrary Partners:

Safety knowledge contributed by: